小惑星A/2017 U7

A/2017 U7

English version
Home page
Updated on October 28, 2018

---------------------------------------------------------------------

・ プロフィール

発見日 2017年10月29日
発見光度 20.1等
発見者 Pan-STARRS 1 telescope (Haleakala)

・ 写真集

・ 軌道要素

Epoch 2019 Aug. 25.0 TT = JDT 2458720.5
T 2019 Sept. 11.27159 TT                                MPCW
q   6.4173094            (2000.0)            P               Q
z  -0.0001195      Peri.  326.03188     +0.53149243     -0.59459714
 +/-0.0000010      Node   276.23302     -0.57729781     -0.77546596
e   1.0007668      Incl.  142.63526     -0.61987340     +0.21238356
From 122 observations 2017 Aug. 18-2018 Aug. 16, mean residual 0".3.

・ 光度変化

        m1 = -12 + 5 logΔ + 30 log r

---------------------------------------------------------------------

軌道要素はM.P.E.C. 2018-S50に掲載されたものです。
光度グラフはComet for Windowsで作成したものです。

---------------------------------------------------------------------

Copyright(C) Seiichi Yoshida (comet@aerith.net). All rights reserved.